Weather in Yasnaya Polyana

Russia / Tula Oblast     54°04′20″N   37°31′45″E
temp.,
°C
wind,
m/s
gust,
m/s
humid.,
%
clouds,
%
prec.,
mm/h
press.,
hPa
HPBL,
m
9 may, sun
sun900:00+8w6995100 0.1 1003514
03:00+6nw5995100 0.3 1005586
06:00+4nw71197100 0.6 1007779
09:00+3nw81396100 0.9 1010820
12:00+4nw81396100 0.4 1013903
15:00+6nw81283100 1.8 10151249
18:00+8wnw51171100 0.2 1017752
21:00+5nw4118218 0.3 1020228
10 may, mon
mon1000:00+3nw412845 0.0 1022224
03:00+2nnw411855 0.0 1024227
06:00+3n411830 0.0 1026242
09:00+9n69590 0.0 10261002
12:00+11n79410 0.0 10271518
15:00+12nne79474 0.0 10261573
18:00+11nne610570 0.0 10261142
21:00+7nne411710 0.0 1027236
11 may, tue
tue1100:00+7ne6146737 0.0 1027353
03:00+6ne6157569 0.0 1026365
06:00+7ne61574100 0.0 1026416
09:00+11ne7127293 0.0 1026454
12:00+15ene8116919 0.0 1025868
15:00+18ene6969100 0.1 10251299
18:00+17e61078100 0.5 1025850
21:00+13e229592 2.3 102539
12 may, wed
wed1200:00+12e239899 1.1 1024105
03:00+10s6894100 1.9 1024448
06:00+8s3596100 2.4 1024249
09:00+9ne2293100 2.8 1024133
12:00+14e457069 0.0 10231157
15:00+16e5665100 0.1 10221389
18:00+13e588634 0.1 1021521
21:00+11ese4109764 0.1 1020352
13 may, thu
thu1300:00+11ese389796 0.0 1020234
03:00+10ese379777 0.0 1020146
06:00+10ese49947 0.0 1020234
09:00+16se57725 0.0 1019653
12:00+19sse57573 0.0 10191500
15:00+20sse565349 0.0 10181718
18:00+19sse356588 0.0 1018297
21:00+14ese3377100 0.0 101822